Back to catalog

SES 6

AliveCommunicationsGEO
NORAD 39172·PAYLOAD·🇱🇺 Luxembourg

Launched Jun 3, 2013 from Baikonur Cosmodrome

Loading…

TLE

FreshSource: CelesTrak SupGP

Epoch: Sep 13, 2026, 23:44 UTC

1 39172C 13026A   26256.98958333 -.00000171  00000+0  00000+0 0  2567
2 39172   0.0527 295.0290 0002396 240.8191 132.8888  1.00271896    13

Track SES 6 in real time with AllMySat

Download on the App Store